Regional Weather Roundup
Issued by NWS Green Bay, WI

Home | Current Version | Previous Version | Text Only | Print | Product List | Glossary On
Versions: 1 2 3 4 5 6 7 8 9 10 11 12 13 14 15 16 17 18 19 20 21 22 23 24 25 26 27 28 29 30 31 32 33 34 35 36 37 38 39 40 41 42 43 44 45 46 47 48 49 50
000
ASUS43 KGRB 310611
RWRGRB

NORTH-CENTRAL AND NORTHEAST WISCONSIN REGIONAL WEATHER ROUNDUP
NATIONAL WEATHER SERVICE GREEN BAY WI
100 AM CDT MON AUG 31 2015

WIZ005-009-010>012-018-019-310700-
NORTH CENTRAL WISCONSIN

CITY           SKY/WX    TMP DP  RH WIND       PRES   REMARKS
IRONWOOD       FAIR      66  64  94 SW8       29.91S
MANITOWISH WTR CLOUDY    64  64 100 SW5       29.98S
ARBOR VITAE    FAIR      62  61  96 CALM      29.99S
EAGLE RIVER    FAIR      63  62  99 SW5       29.99S
LAND O LAKES   FAIR      64  63  97 SW5       29.99S
RHINELANDER    CLOUDY    63  62  97 SW6       30.01R
PHILLIPS       MOCLDY    61  61 100 SW5       29.98S
ANTIGO         FOG       58  58 100 CALM      30.01S VSB 1/4
TOMAHAWK       FOG       58  57  97 CALM      30.00F VSB 1/4
MERRILL        FOG       59  59 100 CALM      30.00S VSB 1/4
$$

WIZ013-073-310700-
NORTHEAST WISCONSIN

CITY           SKY/WX    TMP DP  RH WIND       PRES   REMARKS
IRON MOUNTAIN  FAIR      61  60  97 CALM      29.95S
MARINETTE      FAIR      64  61  88 SW6       29.97S
OCONTO         FAIR      60  60 100 CALM      29.98S
$$

WIZ017-030-035>037-045-310700-
CENTRAL WISCONSIN

CITY           SKY/WX    TMP DP  RH WIND       PRES   REMARKS
MEDFORD        FOG       58  58 100 S3        30.01S VSB 1/4
WAUSAU         FAIR      62  61  96 SW5       29.99S FOG
MOSINEE        FAIR      59  59 100 SW3       30.02R FOG
MARSHFIELD     FOG       61  58  90 SW6       30.01R VSB 1/4
WISC RAPIDS    FOG       61  59  93 SW3       30.01S VSB 3/4
STEVENS POINT  FAIR      60  60  99 CALM      30.01S FOG
WAUPACA        FOG       61  60  97 CALM      30.01R VSB 3/4
SHAWANO        FAIR      65  63  94 CALM      29.99S FOG
CLINTONVILLE   FOG       61  59  94 CALM      29.99F VSB 1/2
WAUTOMA        FOG       59  59 100 CALM      30.01F VSB<1/4
$$

WIZ038-039-048-051-310700-
FOX VALLEY

CITY           SKY/WX    TMP DP  RH WIND       PRES   REMARKS
NWS GREEN BAY  FAIR      63  61  93 S3        30.00S FOG
APPLETON       FAIR      61  61 100 S6        29.99S
OSHKOSH        FAIR      62  60  93 S6        30.01S
FOND DU LAC    FAIR      60  59  96 S5        30.02S
$$

WIZ022-050-052-310700-
EAST CENTRAL WISCONSIN

CITY           SKY/WX    TMP DP  RH WIND       PRES   REMARKS
EPHRAIM        FAIR      65  63  93 SW7       29.97F
STURGEON BAY   FAIR      63  59  88 S3        30.01S
MANITOWOC      FOG       61  61 100 MISG      30.01S VSB 1/2
SHEBOYGAN      FOG       57  57 100 CALM      30.02S VSB 1/2
$$

LMZ563-521-522-541>543-310700-
LAKESHORE

STATION/POSITION TIME  TEMP    WIND        PRES    VSBY  WAVE
                       AIR SEA DIR/SP/G                  HT/PER
                 (UTC) (F)     (DEG/KT/KT) (MB)    (MI)  (FT/S)
SHEBOYGAN LKSHOR 0600   62     230/  3/  4 1016.5F
NORTHPORT PIER   0602   62     150/  2/  6 1014.6F
N MID LAKE BUOY  0550   63 65  210/ 16/ 17 1014.5F         3/ 5
S GREEN BAY BUOY 0600   65 63  200/  8/ 10 1016.6
CHAMBERS ISLAND  0500   64     190/  5/ 11 1014.9S
$$



USA.gov is the U.S. government's official web portal to all federal, state and local government web resources and services.